Regional Weather Roundup
Issued by NWS

Home | Current Version | Previous Version | Text Only | Print | Product List | Glossary Off
Versions: 1 2 3 4 5 6 7 8 9 10 11 12 13 14 15 16 17 18 19 20 21 22 23 24 25 26 27 28 29 30 31 32 33 34 35 36 37 38 39 40 41 42 43 44 45 46 47 48 49 50

000
ASUS43 KIND 151809
RWRIN

WEATHER ROUNDUP FOR INDIANA
NATIONAL WEATHER SERVICE INDIANAPOLIS IN
100 PM EST FRI DEC 15 2017

NOTE: "FAIR" INDICATES FEW OR NO CLOUDS BELOW 12,000 FEET WITH NO
SIGNIFICANT WEATHER AND/OR OBSTRUCTIONS TO VISIBILITY.

* - STATION DOES NOT REPORT WEATHER SUCH AS PRECIPITATION OR FOG.

+ - STATION NOT QUALITY CONTROLLED BY THE NATIONAL WEATHER SERVICE.
    USE DATA WITH CAUTION...ESPECIALLY DEWPOINT AND RELATIVE
    HUMIDITY OBSERVATIONS.

INZ001>003-010>013-019-020-151900-
NORTHWEST INDIANA

CITY           SKY/WX    TMP DP  RH WIND       PRES   REMARKS
GARY /AIRPORT/ PTSUNNY   32  12  43 W18G38    29.94F WCI  20
KNOX *+        CLOUDY    28  18  64 W18       29.93S WCI  16
LA PORTE +     SUNNY     27  18  68 W20G26    29.92S WCI  13
6HR MIN TEMP:  21; 6HR MAX TEMP:  27;

MICHIGAN CITY+ CLOUDY    30  16  55 W12G26    29.92F WCI  21
MONTICELLO +   CLOUDY    30  15  55 W17G29    29.96S WCI  18
6HR MIN TEMP:  23; 6HR MAX TEMP:  30;

RENSSELAER +   CLOUDY    32  12  43 W17G29    29.96S WCI  21
VALPARAISO     PTSUNNY   30  16  56 W20       29.92F WCI  17
6HR MIN TEMP:  24; 6HR MAX TEMP:  32; 6HR PCP: TRACE;


$$

LMZ046-743>745-151900-
SOUTHERN LAKE MICHIGAN

STATION/POSITION TIME  TEMP    WIND        PRES    WAVE
                       AIR SEA DIR/SP/G            HT
                 (UTC) (F)     (DEG/KT/KT) (MB)    (FT)
BURNS HARBOR     1740   29     280/ 18/ 24 1013.5F
MICHIGAN CITY    1740   28     250/ 27/ 31   N/A

$$

INZ004-005-014>016-021>024-151900-
NORTH CENTRAL INDIANA

CITY           SKY/WX    TMP DP  RH WIND       PRES   REMARKS
ELKHART        PTSUNNY   28  18  64 W15G25    29.88S WCI  17
GOSHEN         CLOUDY    25  21  85 W15       29.89S WCI  13
6HR MIN TEMP:  22; 6HR MAX TEMP:  25; 6HR PCP: TRACE;

LOGANSPORT +   CLOUDY    30  18  59 W20G26    29.96S WCI  18
PERU/GRISSOM   CLOUDY    29  17  62 W24       29.93S WCI  14
6HR MIN TEMP:  23; 6HR MAX TEMP:  29; 6HR PCP: TRACE;

ROCHESTER +    CLOUDY    30  21  69 W14G21    29.93S WCI  20
SOUTH BEND     CLOUDY    26  17  68 W12       29.90S WCI  16
6HR MIN TEMP:  20; 6HR MAX TEMP:  26; 6HR PCP:  0.02;

WARSAW +       FLURRIES  28  21  74 W16G22    29.90S WCI  17

$$

INZ006>009-017-018-025>027-151900-
NORTHEAST INDIANA

CITY           SKY/WX    TMP DP  RH WIND       PRES   REMARKS
AUBURN +       LGT SNOW  28  19  69 W16G22    29.88F WCI  17
FORT WAYNE     LGT SNOW  27  21  78 W20       29.91S WCI  13
6HR MIN TEMP:  24; 6HR MAX TEMP:  27; 6HR PCP: TRACE;

HUNTINGTON +   CLOUDY    27  20  75 W16       29.92S WCI  15
6HR MIN TEMP:  24; 6HR MAX TEMP:  27;

KENDALLVILLE + LGT SNOW  25  20  82 W17G29    29.87S WCI  12

$$

INZ028-029-035-036-043>045-051>053-151900-
WEST CENTRAL INDIANA

CITY           SKY/WX    TMP DP  RH WIND       PRES   REMARKS
CRAWFORDSVL +  CLOUDY    28  20  71 MISG        N/A
6HR MIN TEMP:  22; 6HR MAX TEMP:  29;

GREENCASTLE +  CLOUDY    30  21  69 W10       30.01F WCI  21
LAFAYETTE      CLOUDY    30  17  58 W22G30    29.98F WCI  17
6HR MIN TEMP:  23; 6HR MAX TEMP:  30;

TERRE HAUTE    CLOUDY    33  22  63 W14       30.04F WCI  23
6HR MIN TEMP:  25; 6HR MAX TEMP:  32;


$$

INZ030>032-037>040-046>048-054>057-064-065-151900-
CENTRAL INDIANA

CITY           SKY/WX    TMP DP  RH WIND       PRES   REMARKS
ANDERSON       CLOUDY    28  19  69 W12G17    29.96F WCI  18
COLUMBUS       CLOUDY    30  18  59 SW12G17   30.03F WCI  21
FRANKFORT +    CLOUDY    32  22  66 W18       29.99S WCI  20
6HR MIN TEMP:  26; 6HR MAX TEMP:  32;

GREENWOOD *+   CLOUDY    32  23  68 W15       30.00  WCI  22
INDIANAPOLIS   CLOUDY    30  20  66 SW17      30.00F WCI  18
6HR MIN TEMP:  25; 6HR MAX TEMP:  30;

-EAGLE CREEK   CLOUDY    31  20  63 W13G20    29.99F WCI  21
6HR MIN TEMP:  26; 6HR MAX TEMP:  31;

KOKOMO +       FLURRIES  28  19  69 W25G32    29.95F WCI  13
6HR MIN TEMP:  24; 6HR MAX TEMP:  29; 6HR PCP: TRACE;

MARION +       CLOUDY    28  20  73 W26       29.95F WCI  12
MT COMFORT *+  CLOUDY    28  23  80 W17G23    29.98F WCI  16
SHELBYVILLE    CLOUDY    30  19  63 W14       29.99F WCI  19
6HR MIN TEMP:  25; 6HR MAX TEMP:  31;

ZIONSVILLE +   CLOUDY    28  20  75 W17G23    29.98S WCI  15
6HR MIN TEMP:  24; 6HR MAX TEMP:  28;


$$

INZ033-034-041-042-049-050-058-059-151900-
EAST CENTRAL INDIANA

CITY           SKY/WX    TMP DP  RH WIND       PRES   REMARKS
MUNCIE         CLOUDY    30  19  63 W20G26    29.95S WCI  17
6HR MIN TEMP:  25; 6HR MAX TEMP:  30;

RICHMOND +     CLOUDY    28  19  69 W21       29.95F WCI  15

$$

INZ060-061-067>069-081>083-085>088-151900-
SOUTHWEST INDIANA

CITY           SKY/WX    TMP DP  RH WIND       PRES   REMARKS
EVANSVILLE     CLOUDY    37  23  56 W10G20    30.11F WCI  30
6HR MIN TEMP:  29; 6HR MAX TEMP:  37; 6HR PCP: TRACE;

HUNTINGBURG +  CLOUDY    35  22  58 W13       30.10F WCI  26
6HR MIN TEMP:  29; 6HR MAX TEMP:  35;

WASHINGTON +   CLOUDY    34  20  56 SW10G16   30.07F WCI  26
6HR MIN TEMP:  28; 6HR MAX TEMP:  34;


$$

INZ062-063-066-070>080-084-089>092-151900-
SOUTH CENTRAL AND SOUTHEAST INDIANA

CITY           SKY/WX    TMP DP  RH WIND       PRES   REMARKS
BEDFORD +      CLOUDY    32  19  59 SW10G16   30.05F WCI  24
BLOOMINGTON    CLOUDY    31  19  61 SW9       30.03S WCI  23
6HR MIN TEMP:  26; 6HR MAX TEMP:  31;

MADISON *+     CLOUDY    32  19  59 SW12G17   30.06F WCI  23
NORTH VERNON + CLOUDY    28  18  64 SW12G20   30.04F WCI  18
SEYMOUR +      CLOUDY    34  19  55 SW12      30.05F WCI  25

$$





USA.gov is the U.S. government's official web portal to all federal, state and local government web resources and services.